Back to catalog

HJ-2F

AliveScienceSSO
NORAD 57519·PAYLOAD·🇨🇳 China

Launched Aug 8, 2023 from Taiyuan Satellite Launch Center

Loading…

Next Passes (next 24 hours)

TLE

FreshSource: Space-Track

Epoch: Sep 14, 2026, 15:25 UTC

1 57519U 23116A   26257.64247043  .00005035  00000-0  23653-3 0  9997
2 57519  97.3889 261.3272 0006774 201.4625 158.6327 15.20037225172368

Track HJ-2F in real time with AllMySat

Download on the App Store